Waarnemingen

Advertentie
Mijn weer
Schaffen, België (6465): temperatuur & dauwpunt: 15.02.2019 19:00:00 - 21.02.2019 19:00:00 (CET)Schaffen, België (6465): windsnelheid & windstoten: 15.02.2019 19:00:00 - 21.02.2019 19:00:00 (CET)Schaffen, België (6465): windrichting: 15.02.2019 19:00:00 - 21.02.2019 19:00:00 (CET)Schaffen, België (6465): luchtdruk: 15.02.2019 19:00:00 - 21.02.2019 19:00:00 (CET)Schaffen, België (6465): zicht: 15.02.2019 19:00:00 - 21.02.2019 19:00:00 (CET)
Datum & Tijd tt [°C] td [°C] ff [km/u] ff [kn] fx [km/u] fx [kn] dd ppp [hPa] vv [km]
21.02.2019 19:00:00 12,0 6,2 7 4 - - WZW 1029,0 12
21.02.2019 18:00:00 12,7 6,0 11 6 18 10 WZW 1028,2 14
21.02.2019 17:00:00 12,8 5,9 11 6 22 12 WZW 1027,9 13
21.02.2019 16:00:00 13,3 5,9 11 6 - - WZW 1027,9 16
21.02.2019 15:00:00 13,0 5,3 14 8 25 14 W 1028,0 17
21.02.2019 14:00:00 13,8 5,9 11 6 22 12 ZW 1027,7 20
21.02.2019 13:00:00 11,8 5,5 11 6 - - ZW 1028,2 16
21.02.2019 12:00:00 10,8 6,4 7 4 14 8 ZW 1028,2 13
21.02.2019 11:00:00 9,5 6,1 7 4 14 8 ZZW 1028,0 9
21.02.2019 10:00:00 8,6 5,7 11 6 - - WZW 1027,4 9
21.02.2019 09:00:00 7,4 4,7 11 6 18 10 ZW 1027,2 10
21.02.2019 08:00:00 6,4 4,1 7 4 14 8 ZZW 1026,4 7
21.02.2019 07:00:00 5,6 3,6 9 5 - - ZZW 1026,0 6
21.02.2019 06:00:00 4,4 3,5 5 3 11 6 Z 1026,2 3,6
21.02.2019 05:00:00 4,5 3,5 8 4 11 6 Z 1026,2 4,6
21.02.2019 04:00:00 5,8 3,8 7 4 - - ZZW 1026,4 8
21.02.2019 03:00:00 5,9 3,9 4 2 11 6 N 1026,2 9
21.02.2019 02:00:00 6,6 4,0 7 4 11 6 ZZW 1025,7 11
21.02.2019 01:00:00 7,3 4,2 4 2 - - N 1025,5 11
21.02.2019 00:00:00 7,5 4,3 7 4 14 8 Z 1025,2 13
20.02.2019 23:00:00 6,9 3,8 4 2 7 4 N 1025,2 16
20.02.2019 22:00:00 7,0 3,6 4 2 - - N 1025,4 16
20.02.2019 21:00:00 7,5 3,6 4 2 11 6 N 1025,0 19
20.02.2019 20:00:00 8,0 2,4 7 4 11 6 ZZW 1024,9 20
20.02.2019 19:00:00 8,6 1,0 7 4 - - Z 1024,2 20
20.02.2019 18:00:00 10,4 0,6 7 4 22 12 ZZW 1024,0 20
20.02.2019 17:00:00 11,8 1,7 11 6 25 14 ZW 1023,6 20
20.02.2019 16:00:00 11,9 2,1 14 8 - - ZW 1023,7 20
20.02.2019 15:00:00 11,5 3,3 11 6 25 14 ZW 1023,5 20
20.02.2019 14:00:00 10,5 4,6 14 8 25 14 ZZW 1023,7 20
20.02.2019 13:00:00 9,7 4,0 11 6 - - ZW 1023,8 20
20.02.2019 12:00:00 9,0 4,5 14 8 22 12 WZW 1024,0 16
20.02.2019 11:00:00 7,9 4,4 7 4 18 10 ZW 1023,8 14
20.02.2019 10:00:00 6,4 3,5 7 4 - - ZW 1023,6 10
20.02.2019 09:00:00 4,8 2,8 7 4 18 10 ZZW 1023,0 9
20.02.2019 08:00:00 3,5 1,9 4 2 7 4 N 1022,5 8
20.02.2019 07:00:00 3,2 1,7 4 2 - - N 1022,2 9
20.02.2019 06:00:00 4,0 2,0 7 4 11 6 Z 1022,1 13
20.02.2019 05:00:00 4,8 2,2 7 4 14 8 ZZW 1022,0 12
20.02.2019 04:00:00 4,0 2,1 7 4 - - ZZW 1021,8 12
20.02.2019 03:00:00 3,8 1,9 7 4 11 6 Z 1022,2 13
20.02.2019 02:00:00 4,4 2,3 7 4 11 6 ZZW 1022,5 15
20.02.2019 01:00:00 5,3 2,4 4 2 - - - 1022,2 17
20.02.2019 00:00:00 6,1 2,7 7 4 11 6 ZW 1022,2 18
19.02.2019 23:00:00 6,5 2,6 7 4 11 6 N 1022,1 19
19.02.2019 22:00:00 7,0 2,4 4 2 - - N 1022,0 20
19.02.2019 21:00:00 7,5 2,4 4 2 11 6 N 1021,7 20
19.02.2019 20:00:00 7,9 2,2 4 2 11 6 - 1021,7 20
19.02.2019 19:00:00 8,3 1,6 4 2 - - - 1021,2 20
19.02.2019 18:00:00 8,9 1,4 7 4 22 12 WZW 1021,0 20
19.02.2019 17:00:00 9,7 2,0 11 6 29 16 W 1020,8 20
19.02.2019 16:00:00 11,0 2,2 18 10 - - W 1020,7 20
19.02.2019 15:00:00 11,1 3,2 14 8 36 19 WZW 1020,7 20
19.02.2019 14:00:00 9,7 3,2 22 12 32 18 WZW 1020,7 20
19.02.2019 13:00:00 9,7 3,5 18 10 - - WZW 1020,7 20
19.02.2019 12:00:00 9,8 3,8 22 12 36 19 WZW 1020,8 20
19.02.2019 11:00:00 9,0 4,1 18 10 29 16 WZW 1020,5 20
19.02.2019 10:00:00 7,7 4,8 11 6 - - WZW 1020,2 15
19.02.2019 09:00:00 6,6 4,8 7 4 22 12 ZW 1020,0 18
19.02.2019 08:00:00 6,5 4,7 14 8 25 14 WZW 1019,2 18
19.02.2019 07:00:00 7,3 5,3 11 6 - - WZW 1018,6 18
19.02.2019 06:00:00 7,2 5,3 8 4 14 8 ZW 1018,2 10
19.02.2019 05:00:00 7,4 5,1 7 4 14 8 WZW 1018,1 19
19.02.2019 04:00:00 7,5 5,2 7 4 - - WZW 1017,7 15
19.02.2019 03:00:00 8,0 5,9 8 4 14 8 WZW 1017,7 7
19.02.2019 02:00:00 8,3 5,6 7 4 18 10 WNW 1017,5 10
19.02.2019 01:00:00 8,4 4,0 11 6 - - W 1017,1 20
19.02.2019 00:00:00 8,4 3,2 7 4 18 10 ZW 1016,7 20
18.02.2019 23:00:00 8,6 3,2 11 6 18 10 ZZW 1016,3 20
18.02.2019 22:00:00 8,8 2,7 11 6 - - Z 1016,5 20
18.02.2019 21:00:00 9,7 2,7 11 6 18 10 ZZW 1016,3 20
18.02.2019 20:00:00 10,8 2,4 11 6 14 8 ZZW 1016,2 20
18.02.2019 19:00:00 11,3 2,7 7 4 - - ZZW 1015,8 20
18.02.2019 18:00:00 13,7 2,1 7 4 14 8 N 1015,7 20
18.02.2019 17:00:00 14,5 2,5 11 6 18 10 ZZW 1015,5 20
18.02.2019 16:00:00 15,3 2,5 11 6 - - ZZW 1015,7 20
18.02.2019 15:00:00 15,5 2,4 7 4 18 10 ZW 1015,7 20
18.02.2019 14:00:00 14,7 1,9 11 6 22 12 Z 1016,6 20
18.02.2019 13:00:00 13,6 1,4 11 6 - - Z 1017,5 20
18.02.2019 12:00:00 12,6 2,7 11 6 18 10 Z 1018,2 20
18.02.2019 11:00:00 10,3 1,0 11 6 18 10 Z 1018,7 20
18.02.2019 10:00:00 6,4 0,9 7 4 - - Z 1019,0 20
18.02.2019 09:00:00 3,3 -0,4 7 4 11 6 Z 1019,2 20
18.02.2019 08:00:00 2,5 -1,2 7 4 11 6 ZZO 1019,3 20
18.02.2019 07:00:00 2,0 -1,4 7 4 - - ZZO 1019,3 20
18.02.2019 06:00:00 2,7 -1,3 7 4 11 6 Z 1019,5 20
18.02.2019 05:00:00 3,3 -1,6 7 4 11 6 Z 1019,3 20
18.02.2019 04:00:00 5,0 -1,7 7 4 - - Z 1019,5 20
18.02.2019 03:00:00 5,0 -1,7 7 4 7 4 ZZO 1019,7 20
18.02.2019 02:00:00 5,5 -1,6 7 4 11 6 Z 1019,8 20
18.02.2019 01:00:00 6,5 -1,4 7 4 - - Z 1020,0 20
18.02.2019 00:00:00 6,7 -1,3 7 4 11 6 Z 1020,0 20
17.02.2019 23:00:00 7,8 -0,9 7 4 11 6 Z 1020,2 20
17.02.2019 22:00:00 8,3 -0,4 7 4 - - Z 1020,2 20
17.02.2019 21:00:00 9,4 -0,3 7 4 11 6 Z 1019,8 20
17.02.2019 20:00:00 10,4 0,0 7 4 14 8 Z 1019,7 20
17.02.2019 19:00:00 12,2 -0,1 11 6 - - Z 1019,6 20
17.02.2019 18:00:00 13,8 -0,1 11 6 22 12 Z 1019,1 20
17.02.2019 17:00:00 15,6 -0,5 18 10 25 14 Z 1018,7 20
17.02.2019 16:00:00 16,2 1,7 11 6 - - Z 1019,2 20
17.02.2019 15:00:00 16,2 1,9 14 8 25 14 Z 1019,3 20
17.02.2019 14:00:00 15,6 2,1 14 8 22 12 Z 1019,7 20
17.02.2019 13:00:00 14,4 3,0 14 8 - - Z 1020,3 20
17.02.2019 12:00:00 11,4 3,4 11 6 18 10 ZZO 1021,2 16
17.02.2019 11:00:00 8,1 2,9 11 6 18 10 ZZO 1021,3 13
17.02.2019 10:00:00 4,8 1,3 11 6 - - ZZO 1021,7 13
17.02.2019 09:00:00 2,5 0,5 11 6 14 8 ZZO 1022,1 10
17.02.2019 08:00:00 1,3 0,0 7 4 11 6 ZZO 1022,2 8
17.02.2019 07:00:00 1,6 0,1 11 6 - - ZZO 1022,2 8
17.02.2019 06:00:00 1,7 0,1 7 4 7 4 ZZO 1022,7 9
17.02.2019 05:00:00 2,2 0,3 4 2 7 4 N 1023,0 10
17.02.2019 04:00:00 1,8 0,3 4 2 - - N 1023,5 9
17.02.2019 03:00:00 2,7 1,1 7 4 7 4 N 1024,0 8
17.02.2019 02:00:00 4,3 1,6 7 4 7 4 ZZO 1024,4 9
17.02.2019 01:00:00 4,4 2,0 7 4 - - ZZO 1024,7 9
17.02.2019 00:00:00 5,5 2,4 4 2 7 4 N 1025,2 9
16.02.2019 23:00:00 6,3 2,4 4 2 7 4 N 1025,2 10
16.02.2019 22:00:00 7,5 2,3 4 2 - - N 1025,2 13
16.02.2019 21:00:00 8,5 2,3 4 2 7 4 N 1025,0 13
16.02.2019 20:00:00 9,5 1,9 7 4 7 4 Z 1025,0 13
16.02.2019 19:00:00 12,0 1,7 4 2 - - N 1025,5 18
16.02.2019 18:00:00 12,9 1,6 4 2 11 6 N 1025,2 20
16.02.2019 17:00:00 14,1 1,9 7 4 14 8 ZZW 1025,5 20
16.02.2019 16:00:00 15,1 2,7 7 4 - - ZZW 1025,7 19
16.02.2019 15:00:00 15,0 3,0 7 4 14 8 ZZW 1025,7 17
16.02.2019 14:00:00 14,1 2,3 7 4 18 10 ZW 1026,0 20
16.02.2019 13:00:00 12,6 2,7 7 4 - - ZZW 1026,5 19
16.02.2019 12:00:00 11,0 2,7 11 6 14 8 ZZW 1027,0 19
16.02.2019 11:00:00 9,1 2,0 11 6 18 10 Z 1026,7 20
16.02.2019 10:00:00 7,2 1,1 11 6 - - ZZW 1027,0 19
16.02.2019 09:00:00 3,4 -0,1 7 4 11 6 Z 1026,9 19
16.02.2019 08:00:00 3,9 -0,3 7 4 11 6 ZZW 1026,4 20
16.02.2019 07:00:00 4,6 -0,2 7 4 - - ZZW 1026,0 20
16.02.2019 06:00:00 1,5 -1,0 11 6 11 6 Z 1026,2 20
16.02.2019 05:00:00 2,1 -0,9 7 4 11 6 Z 1026,2 20
16.02.2019 04:00:00 2,2 -0,9 7 4 - - Z 1026,5 20
16.02.2019 03:00:00 2,5 -0,8 7 4 7 4 ZZO 1026,5 20
16.02.2019 02:00:00 4,4 -0,6 7 4 7 4 ZZO 1026,9 20
16.02.2019 01:00:00 6,3 -0,5 4 2 - - N 1027,0 20
16.02.2019 00:00:00 7,4 -0,5 11 6 14 8 Z 1026,9 20
15.02.2019 23:00:00 8,2 -0,4 11 6 14 8 Z 1027,0 20
15.02.2019 22:00:00 8,0 -0,2 11 6 - - Z 1027,2 20
15.02.2019 21:00:00 8,0 0,6 7 4 11 6 ZZO 1027,5 20
15.02.2019 20:00:00 10,1 0,0 4 2 7 4 N 1027,7 20
15.02.2019 19:00:00 13,6 -0,4 4 2 - - N 1027,7 20

tt = temperatuur
td = dauwpunt
ff = windsnelheid
fx = windstoten
dd = windrichting
ppp = luchtdruk
vv = zicht

Weerstations in de omgeving